Temperature
20 20 21 21 21 20 18 17 17 18 17 18 17 16 18 20 20 19 19 19 18 18 17 16 15 14 13 13 12 11 11 10 10 10 10 9 9 9 9 9 8 8 8 8
21 22 21 21 21 21 20 19 18 19 18 17 18 18 18 19 19 19 20 19 19 18 17 16 15 14 13 12 12 11 10 10 10 10 9 9 9 9 9 8 8 8 8 8
19 20 21 21 22 22 21 20 19 19 19 18 17 16 19 20 20 20 20 19 18 18 17 16 15 14 13 12 11 11 10 10 10 9 9 9 9 9 9 8 8 8 8 8
18 21 22 20 20 21 21 21 18 18 18 17 18 21 21 21 21 20 20 19 18 17 16 15 14 14 13 12 11 11 10 10 10 9 9 9 9 9 8 8 8 8 8 8
16 19 20 20 21 21 21 21 19 18 18 18 18 18 19 21 21 20 20 19 18 17 16 15 14 14 13 12 11 11 10 10 9 9 9 9 9 9 8 8 8 8 8 8
16 19 19 20 21 21 21 21 20 18 17 17 16 16 18 22 21 20 19 19 18 17 16 15 14 14 13 12 11 11 10 10 9 9 9 9 9 8 8 8 8 8 8 8
16 17 18 19 20 21 21 19 22 21 20 18 17 20 22 22 21 21 20 19 18 17 16 15 14 14 13 12 12 11 10 10 9 9 9 9 8 8 8 8 8 8 8 8
15 17 18 20 20 20 20 23 23 24 23 22 23 23 22 22 21 21 20 19 18 17 16 15 14 14 13 13 12 11 10 10 9 9 9 8 8 8 8 8 8 8 8 8
16 18 20 21 21 23 23 23 24 24 24 23 23 23 22 22 21 21 20 19 18 17 16 15 15 14 14 13 12 11 11 10 9 9 9 8 8 8 8 8 8 8 8 8
15 17 20 23 23 24 24 24 24 24 24 24 23 23 23 22 22 21 20 19 18 17 16 16 15 14 14 13 12 11 11 10 10 9 9 9 8 8 8 8 8 8 8 8
16 16 19 23 23 22 23 23 24 24 24 24 23 23 23 23 22 21 21 19 18 17 17 16 15 15 14 13 12 11 11 10 10 9 9 9 9 9 8 8 8 8 8 8
16 18 17 19 19 20 21 22 22 23 23 23 22 23 23 23 22 22 21 19 18 17 17 16 15 15 14 13 12 11 11 10 10 9 9 9 9 9 9 9 8 8 8 8
18 18 17 16 16 17 19 19 20 20 20 21 21 21 21 21 21 20 20 19 18 17 17 16 15 15 14 13 12 12 11 10 10 9 9 9 8 8 9 9 9 9 8 8
16 16 15 14 14 16 17 18 18 19 19 19 19 20 20 19 19 19 19 18 18 17 16 16 16 15 14 13 12 12 11 10 10 9 9 9 8 8 8 8 8 9 9 8
14 14 13 14 15 16 16 17 17 17 17 18 18 18 18 18 18 18 18 17 17 17 16 16 16 15 13 13 12 12 11 10 10 9 9 9 8 8 8 8 8 8 8 8
13 14 14 14 14 14 15 15 15 15 16 16 17 17 17 17 17 17 17 16 16 17 16 16 15 14 13 13 12 12 11 10 10 9 9 9 8 8 8 8 8 8 8 8
13 12 12 12 13 13 13 13 13 14 15 15 15 16 16 16 16 16 16 16 16 16 16 15 15 14 13 13 12 12 11 10 10 9 9 8 8 8 8 8 8 8 8 8
12 12 12 12 12 12 13 13 13 13 14 14 14 15 15 15 15 15 15 15 15 15 15 15 14 14 13 12 12 11 11 10 10 9 9 8 8 8 8 8 8 8 8 8
12 12 12 12 12 12 12 12 12 12 12 12 13 13 13 13 13 13 13 13 13 13 14 14 14 13 13 12 11 11 11 10 9 9 8 8 8 8 8 8 8 8 8 8
12 12 12 12 12 12 12 12 12 12 11 11 11 11 11 11 11 12 12 12 12 12 12 13 13 13 12 12 11 11 10 10 9 9 8 8 8 8 8 8 8 8 8 8
11 11 11 11 11 11 11 11 11 11 11 11 11 10 10 11 11 11 11 11 12 12 12 12 12 12 11 11 11 10 10 9 9 8 8 8 8 8 8 8 8 8 8 8
10 10 10 10 10 10 10 10 10 10 10 10 10 10 10 10 10 10 10 10 10 11 11 11 11 11 11 10 10 10 9 9 8 8 7 7 7 8 8 8 8 8 8 8
10 10 9 9 9 9 9 10 10 10 9 9 9 9 9 9 9 9 9 9 10 10 10 10 10 10 10 9 9 9 8 8 7 7 7 7 7 7 7 8 8 8 8 8
9 9 9 9 9 9 9 9 9 9 9 9 9 9 9 9 9 9 9 9 9 9 9 9 9 9 9 8 8 8 7 7 7 7 7 7 7 7 7 7 8 8 8 8
9 9 9 9 9 9 9 9 9 9 9 9 9 9 8 8 8 8 8 8 8 8 8 8 8 8 7 7 7 7 6 6 6 6 6 6 6 6 6 7 7 7 8 8
9 9 9 9 9 8 8 8 8 8 8 8 8 8 8 8 8 8 8 8 8 7 7 7 7 7 6 6 6 6 6 6 5 5 5 6 6 6 6 6 7 7 7 8
9 9 8 8 8 8 8 8 8 8 8 8 8 8 8 7 7 7 7 7 7 6 6 6 6 6 5 5 5 5 5 5 5 5 5 5 5 5 6 6 6 7 7 7
Wind_Speed
7 6 3 6 7 7 8 9 9 9 9 11 10 10 9 7 6 6 7 7 8 8 7 7 7 7 7 7 7 6 5 6 8 8 7 7 8 8 8 9 10 9 10 10
4 3 4 6 8 7 7 6 7 6 9 9 5 4 5 7 7 8 9 10 9 9 8 8 8 8 7 7 7 5 6 7 7 7 7 8 8 8 9 9 10 9 10 11
4 6 5 6 5 4 5 6 9 10 10 4 5 9 11 10 9 11 11 10 10 10 9 9 8 8 8 8 6 5 6 7 7 7 8 8 9 8 9 10 9 10 11 11
2 2 4 9 5 6 6 6 8 7 7 8 9 8 6 8 10 11 11 11 10 9 9 8 7 7 6 6 6 6 7 8 8 7 8 9 8 9 10 9 9 10 11 11
4 3 6 10 5 5 5 6 7 8 7 5 3 3 5 9 10 12 12 11 10 10 8 7 8 7 6 6 6 6 7 8 8 7 8 9 10 10 10 9 10 10 10 11
4 4 6 11 5 4 4 6 7 9 9 8 8 3 9 10 11 12 11 9 9 7 6 7 8 6 6 7 7 8 8 8 7 7 8 10 10 11 9 9 10 10 11 11
5 6 9 9 2 6 3 9 7 11 11 12 12 13 8 6 10 12 12 11 9 8 7 8 7 5 7 8 9 9 7 7 7 8 8 10 10 9 10 10 10 10 11 11
5 3 7 4 7 9 11 6 5 10 12 15 16 13 9 8 10 11 11 10 9 8 9 8 6 7 8 9 10 7 6 7 8 8 8 8 9 10 9 9 10 10 10 11
8 8 8 5 9 9 4 6 8 9 12 16 15 14 13 11 11 11 12 10 9 10 9 8 7 8 10 10 7 6 6 8 8 9 9 8 9 10 9 8 8 8 8 9
5 9 9 9 8 8 8 11 12 11 11 13 15 16 15 13 12 11 11 10 9 9 9 9 9 9 11 9 6 6 7 8 7 8 9 9 8 7 8 8 8 8 9 9
6 10 10 9 7 9 9 9 10 9 9 13 15 15 14 13 13 12 11 9 9 10 11 12 9 9 9 8 6 7 7 8 8 8 9 9 9 8 9 9 9 10 9 9
8 8 4 7 10 12 10 9 8 7 7 7 11 15 13 12 11 10 10 9 8 10 11 11 9 9 8 7 7 7 7 7 6 7 7 8 9 10 10 12 14 16 16 14
6 4 4 6 10 12 9 9 9 7 6 7 6 8 9 8 6 6 7 9 10 11 11 10 8 9 8 7 7 7 8 7 6 7 7 8 8 8 11 11 11 12 12 12
7 5 9 10 9 12 12 11 12 13 13 11 9 7 4 3 2 5 9 10 9 9 9 9 9 10 8 7 7 8 7 8 8 7 7 7 8 8 8 9 11 10 10 12
13 10 6 6 10 14 14 15 18 18 17 15 13 11 7 4 3 5 6 6 7 8 9 9 9 10 7 7 7 8 7 6 6 7 7 7 8 8 8 9 9 10 10 10
8 10 12 14 15 15 16 17 16 15 14 14 14 13 9 5 4 5 6 6 7 10 11 10 10 9 7 7 7 7 6 9 8 7 7 7 7 7 7 8 8 9 9 8
14 15 13 13 12 12 12 11 11 11 11 12 12 11 10 8 6 6 7 7 9 10 9 9 11 8 8 9 8 6 6 6 8 7 6 6 7 7 7 8 8 8 9 9
7 6 6 6 7 9 11 11 11 11 10 10 10 9 9 8 8 9 9 8 8 9 10 10 10 8 8 8 7 5 5 5 5 6 6 6 7 7 7 7 8 9 9 9
7 7 8 8 8 8 8 9 9 9 9 9 8 8 7 7 8 9 8 8 8 11 11 9 11 10 9 10 8 5 5 5 5 6 6 7 7 6 6 7 7 8 8 8
8 8 9 10 9 8 9 9 9 9 8 8 7 8 9 10 9 9 9 8 8 9 9 9 8 8 9 9 9 5 5 5 5 5 5 5 6 7 6 7 7 7 7 7
8 9 10 10 10 10 9 9 8 9 9 8 7 7 9 10 10 8 8 10 11 10 10 11 7 7 7 8 8 5 5 4 4 5 5 5 6 6 6 6 7 7 7 7
7 7 9 10 10 11 10 9 8 8 8 8 8 8 8 9 10 10 9 9 11 13 10 8 6 7 9 9 6 5 5 4 3 3 4 5 5 6 6 7 7 7 6 7
7 7 9 9 9 10 11 9 8 7 7 8 8 9 9 9 8 8 10 9 10 14 11 8 7 7 9 6 5 4 3 2 2 2 3 4 4 5 6 6 6 6 6 6
8 8 9 9 8 7 8 9 9 7 8 8 8 9 8 8 9 8 9 12 13 14 9 7 5 6 7 4 4 3 2 1 1 2 3 4 4 4 5 5 6 6 6 7
9 8 8 8 8 7 8 9 9 8 8 8 10 10 8 6 7 10 11 11 13 11 7 5 1 4 4 4 4 3 2 1 1 2 3 4 4 4 5 5 6 6 6 6
8 8 8 8 8 8 7 6 6 7 7 8 9 9 9 8 9 9 8 9 9 8 5 2 1 4 4 4 4 4 3 3 3 3 4 4 4 5 5 6 7 6 6 6
8 7 6 7 8 7 6 6 7 7 7 7 9 9 9 9 9 9 9 8 6 4 2 2 3 4 5 6 6 5 4 4 4 4 4 4 4 4 5 6 5 5 6 6
Wind_Direction
231 238 237 251 253 196 192 190 189 228 229 248 233 221 222 219 211 210 223 225 225 232 242 250 258 263 263 268 271 265 265 269 270 274 274 274 277 278 281 280 281 279 282 281
280 266 267 260 262 221 207 197 214 245 259 250 237 189 216 220 209 219 230 231 233 236 240 244 248 255 261 264 265 260 261 268 274 279 279 277 278 281 284 283 282 281 279 279
260 305 353 302 266 215 211 205 187 214 239 218 188 204 216 217 212 220 228 229 230 232 232 236 241 244 251 256 263 260 262 270 276 276 278 279 283 286 285 284 282 283 281 277
190 29 262 253 253 217 219 236 208 226 241 209 211 218 230 212 207 221 226 227 229 230 231 236 237 240 246 254 256 259 266 272 276 276 279 282 283 284 283 282 282 282 282 280
139 193 274 294 272 180 184 261 219 217 231 198 114 48 296 230 210 218 220 218 222 220 219 226 235 237 243 255 256 261 266 269 273 274 279 284 286 285 285 284 285 283 281 280
141 171 232 252 263 165 121 276 236 197 202 170 131 181 252 236 210 221 225 221 220 215 210 226 237 227 231 250 256 259 261 265 270 272 275 280 282 284 284 282 284 287 284 279
178 213 255 255 226 130 162 244 231 196 195 174 186 210 225 222 207 212 216 217 210 201 209 225 227 207 231 247 252 254 258 264 271 273 274 277 278 278 283 286 287 286 285 284
152 189 260 247 150 182 219 240 222 205 200 195 214 227 231 233 221 212 212 212 200 200 220 228 215 206 232 246 250 255 256 263 271 277 279 284 280 284 284 285 288 289 290 291
189 218 245 238 218 242 242 243 239 218 215 207 218 230 230 228 225 218 213 209 198 202 221 232 220 208 229 245 247 247 252 262 273 282 284 282 280 284 290 287 284 288 289 290
241 267 269 273 264 264 241 235 246 232 221 204 214 227 228 225 221 216 213 208 199 199 217 234 230 220 229 242 241 238 253 267 277 286 291 291 284 278 281 284 285 287 287 287
256 275 298 303 304 302 296 278 271 261 234 219 219 229 227 224 219 213 208 202 194 201 217 231 232 231 234 235 226 236 253 266 278 282 286 292 291 281 277 272 264 269 280 279
245 257 254 293 322 331 323 311 302 291 282 258 228 236 236 231 223 209 203 194 195 208 222 233 233 239 239 227 215 228 252 266 274 282 288 290 298 303 281 266 271 264 256 256
268 328 22 337 351 359 4 2 7 10 345 322 296 258 249 243 230 204 198 196 205 214 224 232 233 242 243 225 211 222 242 260 273 280 286 292 298 302 309 310 299 287 276 271
6 54 40 15 357 3 16 19 28 30 21 11 359 343 313 283 248 209 212 211 208 214 225 230 233 243 240 217 213 226 241 259 268 273 281 287 291 293 294 299 307 309 304 296
36 54 60 18 21 23 22 25 28 22 14 11 12 11 2 337 287 256 241 218 204 221 232 231 234 245 236 210 214 228 239 253 264 273 278 283 288 291 293 294 294 296 302 305
40 46 39 33 27 20 21 22 20 11 6 5 5 2 354 333 301 278 256 223 213 231 237 232 237 241 221 205 214 228 240 256 269 276 284 290 293 294 298 301 301 300 299 301
48 35 21 18 13 11 12 10 5 357 356 357 353 348 348 344 333 310 286 260 243 248 246 235 240 234 210 203 208 223 237 259 275 281 280 285 291 293 296 299 299 300 298 296
61 43 22 8 359 355 355 356 355 351 347 338 339 345 347 342 324 310 303 297 283 274 262 246 239 226 212 205 204 212 226 249 264 274 280 286 291 292 294 295 298 301 305 307
29 16 5 0 352 345 341 338 336 333 333 336 339 335 328 323 315 310 309 305 294 287 282 262 237 221 212 205 199 201 216 244 263 272 279 287 293 294 297 300 302 304 306 309
11 1 354 350 346 338 327 323 324 326 327 331 334 336 333 326 322 321 321 307 287 278 282 276 247 224 211 200 193 194 210 236 257 273 283 288 292 298 302 305 307 307 308 311
352 347 344 340 333 327 322 319 321 319 318 323 326 322 316 314 316 318 320 315 306 301 298 280 255 229 207 191 186 188 204 227 248 266 280 287 294 300 307 312 313 310 312 315
329 328 326 324 324 321 318 315 311 309 313 317 317 317 319 319 319 316 304 295 302 308 308 291 267 229 201 182 179 183 197 217 241 264 279 287 295 304 310 315 316 318 320 323
306 305 307 309 309 305 307 310 311 311 308 306 305 306 305 301 301 301 306 305 310 310 310 295 270 225 189 173 170 174 187 207 244 273 286 294 302 310 312 316 319 325 330 336
297 298 298 299 304 308 309 307 308 303 295 294 292 292 295 302 304 295 292 300 307 309 309 295 264 203 167 156 152 153 159 166 267 302 306 310 317 321 321 324 332 337 341 345
288 291 293 302 305 298 292 297 305 304 305 304 301 299 297 285 286 299 304 307 309 312 316 315 270 157 144 133 130 126 113 84 20 339 329 330 333 334 333 338 344 343 343 345
281 281 280 277 273 273 278 284 288 292 295 298 301 301 302 303 302 304 307 311 315 319 323 338 95 123 117 111 104 93 75 50 26 8 350 343 345 346 343 348 352 351 346 346
282 279 279 287 287 277 276 278 281 284 283 285 291 296 300 306 309 311 313 316 320 332 357 46 84 99 100 96 87 75 61 43 25 11 360 355 354 350 348 353 355 352 349 348
Height
1510 1506 1507 1506 1504 1506 1511 1514 1521 1514 1511 1500 1495 1494 1494 1496 1499 1501 1502 1504 1505 1505 1505 1505 1504 1502 1500 1498 1496 1494 1492 1490 1488 1485 1483 1480 1477 1474 1471 1468 1465 1462 1459 1457
1507 1502 1504 1504 1498 1498 1501 1504 1507 1505 1503 1490 1490 1492 1494 1495 1496 1498 1499 1501 1501 1502 1502 1501 1500 1498 1496 1494 1492 1490 1488 1486 1483 1481 1478 1475 1472 1469 1465 1462 1459 1456 1453 1451
1516 1507 1503 1508 1496 1494 1494 1494 1498 1501 1494 1487 1489 1489 1489 1491 1493 1494 1496 1497 1498 1498 1498 1497 1495 1494 1492 1490 1488 1486 1484 1481 1479 1476 1473 1470 1466 1463 1460 1456 1453 1450 1448 1445
1518 1511 1516 1505 1488 1487 1489 1488 1489 1488 1486 1485 1484 1485 1487 1489 1490 1491 1492 1493 1494 1494 1493 1492 1491 1489 1488 1486 1484 1481 1479 1477 1474 1471 1468 1464 1461 1458 1454 1451 1447 1445 1442 1440
1522 1519 1512 1497 1485 1485 1488 1488 1482 1483 1482 1483 1484 1486 1485 1485 1486 1487 1488 1489 1489 1489 1489 1488 1487 1485 1483 1481 1479 1477 1474 1472 1469 1466 1462 1459 1455 1452 1449 1445 1442 1439 1437 1434
1519 1518 1518 1497 1480 1480 1485 1490 1477 1478 1479 1481 1483 1491 1483 1480 1481 1482 1483 1484 1484 1485 1484 1483 1482 1481 1479 1477 1475 1472 1470 1467 1464 1461 1457 1454 1450 1447 1444 1440 1437 1434 1431 1429
1515 1516 1506 1483 1479 1481 1496 1491 1471 1472 1473 1475 1477 1476 1475 1475 1476 1477 1478 1479 1480 1480 1480 1479 1478 1476 1474 1472 1470 1468 1465 1462 1459 1456 1452 1448 1445 1442 1438 1435 1432 1429 1426 1423
1515 1514 1505 1477 1479 1482 1478 1468 1468 1467 1467 1468 1468 1468 1470 1471 1472 1472 1473 1474 1474 1475 1475 1475 1473 1472 1469 1467 1465 1463 1460 1457 1454 1451 1447 1443 1440 1436 1433 1430 1427 1424 1421 1418
1499 1494 1478 1474 1474 1470 1468 1467 1464 1463 1462 1463 1463 1463 1464 1465 1466 1467 1468 1469 1469 1470 1470 1469 1468 1467 1465 1463 1461 1458 1455 1452 1449 1446 1442 1439 1435 1432 1428 1425 1422 1419 1415 1412
1488 1479 1472 1470 1468 1465 1464 1462 1460 1459 1458 1457 1457 1457 1458 1459 1460 1461 1462 1463 1464 1465 1464 1464 1463 1462 1460 1458 1456 1453 1451 1448 1445 1441 1438 1434 1431 1427 1423 1420 1417 1414 1410 1407
1484 1475 1470 1466 1465 1463 1460 1457 1455 1454 1453 1452 1452 1452 1452 1452 1453 1454 1456 1458 1459 1459 1459 1459 1459 1457 1455 1453 1451 1449 1446 1443 1440 1436 1433 1429 1426 1422 1419 1415 1413 1409 1405 1402
1480 1471 1471 1468 1465 1460 1456 1453 1451 1450 1449 1448 1447 1447 1446 1446 1447 1448 1450 1452 1454 1455 1455 1455 1454 1452 1451 1449 1447 1444 1441 1438 1435 1432 1428 1424 1421 1417 1414 1411 1408 1405 1401 1398
1472 1470 1470 1468 1464 1459 1455 1452 1449 1448 1446 1445 1443 1442 1442 1442 1442 1444 1446 1448 1450 1451 1451 1451 1449 1448 1447 1444 1442 1439 1436 1433 1430 1427 1423 1420 1416 1412 1408 1406 1404 1401 1397 1393
1469 1468 1468 1467 1465 1460 1456 1453 1450 1447 1446 1444 1442 1440 1439 1439 1439 1440 1442 1444 1446 1447 1447 1446 1444 1443 1442 1440 1437 1434 1432 1429 1425 1422 1419 1416 1412 1408 1405 1401 1398 1394 1392 1388
1473 1472 1473 1470 1465 1461 1457 1453 1449 1447 1446 1444 1442 1440 1438 1438 1437 1438 1440 1441 1441 1441 1441 1440 1439 1438 1437 1435 1433 1430 1427 1424 1421 1418 1415 1411 1408 1404 1401 1398 1394 1390 1387 1383
1477 1475 1472 1469 1466 1463 1459 1456 1453 1451 1449 1446 1444 1442 1440 1439 1437 1436 1437 1437 1437 1436 1435 1434 1433 1432 1431 1429 1427 1425 1422 1419 1416 1413 1410 1407 1404 1400 1397 1394 1391 1387 1383 1380
1476 1475 1473 1471 1469 1466 1463 1461 1458 1455 1451 1448 1446 1443 1441 1439 1436 1435 1434 1433 1432 1430 1429 1428 1427 1426 1425 1423 1421 1419 1417 1415 1412 1409 1406 1403 1400 1396 1393 1390 1387 1384 1381 1377
1481 1480 1478 1475 1472 1468 1465 1462 1459 1456 1452 1449 1446 1443 1440 1437 1434 1432 1429 1427 1425 1423 1421 1420 1419 1418 1417 1416 1415 1414 1412 1410 1407 1404 1401 1398 1396 1393 1390 1387 1384 1381 1377 1374
1481 1480 1477 1474 1472 1469 1465 1462 1458 1455 1451 1448 1444 1441 1438 1435 1432 1428 1425 1422 1419 1416 1414 1413 1411 1410 1409 1409 1408 1407 1406 1404 1402 1399 1397 1394 1391 1389 1386 1384 1381 1378 1375 1371
1480 1478 1475 1472 1469 1466 1463 1459 1456 1452 1449 1445 1442 1439 1435 1432 1429 1425 1421 1418 1415 1411 1407 1405 1403 1401 1401 1402 1401 1401 1400 1398 1396 1394 1392 1390 1387 1385 1383 1381 1378 1375 1372 1369
1478 1475 1473 1470 1467 1463 1460 1456 1452 1449 1446 1443 1440 1436 1433 1429 1426 1422 1417 1413 1409 1406 1401 1398 1395 1394 1394 1394 1394 1394 1394 1393 1391 1389 1387 1385 1383 1381 1380 1378 1375 1373 1370 1367
1476 1473 1470 1467 1463 1460 1456 1452 1449 1446 1443 1440 1437 1433 1429 1425 1422 1417 1414 1409 1404 1400 1395 1391 1389 1387 1386 1387 1387 1388 1388 1387 1386 1384 1383 1381 1379 1378 1376 1375 1373 1370 1368 1364
1473 1470 1467 1463 1460 1456 1452 1449 1446 1443 1440 1437 1434 1430 1426 1422 1418 1413 1408 1403 1399 1394 1389 1385 1383 1381 1380 1381 1382 1383 1383 1382 1381 1380 1379 1377 1376 1374 1373 1372 1370 1368 1366 1363
1469 1466 1463 1460 1456 1453 1449 1446 1443 1440 1437 1434 1430 1427 1422 1418 1413 1409 1403 1398 1393 1388 1384 1380 1377 1376 1376 1377 1378 1379 1379 1378 1377 1376 1375 1374 1372 1371 1370 1369 1368 1366 1364 1362
1464 1462 1459 1456 1453 1449 1446 1443 1439 1436 1433 1429 1426 1422 1418 1414 1408 1403 1398 1393 1388 1383 1378 1375 1373 1372 1373 1373 1374 1375 1375 1374 1374 1372 1371 1370 1369 1368 1367 1366 1365 1364 1362 1360
1459 1457 1454 1451 1448 1445 1442 1439 1435 1432 1428 1424 1421 1417 1413 1409 1404 1398 1393 1388 1383 1378 1374 1371 1370 1370 1370 1371 1372 1372 1372 1372 1370 1369 1368 1367 1366 1366 1365 1364 1363 1362 1361 1359
1454 1451 1449 1446 1443 1440 1437 1434 1430 1427 1423 1419 1415 1412 1408 1403 1399 1393 1388 1383 1378 1374 1371 1369 1368 1368 1368 1369 1370 1370 1370 1369 1368 1367 1366 1365 1364 1364 1363 1362 1362 1361 1360 1358